AIC6HK VABB-VOMM

Flight info

Callsign AIC6HK
Flight time N/A
Altitude 35000
Route VEVAK2A EPKOS Q9 OPAMO DCT GUANI
Aircraft A321/M-SDE3FGHIRWY/LB1

Departure

Time 2026-05-06 06:33
Airport Chhatrapati Shivaji Maharaj International Airport (VABB)

Arrival

Time N/A
Airport Chennai International Airport (VOMM)
Time Latitude Longitude Altitude Speed Heading
2026-05-06 06:09 19.09326 72.87148 39 ft 0 kts 360°
2026-05-06 06:20 19.09325 72.87148 39 ft 1 kts 360°
2026-05-06 06:20 19.09311 72.87148 39 ft 2 kts 360°
2026-05-06 06:20 19.09296 72.87148 38 ft 2 kts 360°
2026-05-06 06:21 19.09281 72.87148 37 ft 2 kts 359°
2026-05-06 06:21 19.09266 72.87148 36 ft 2 kts
2026-05-06 06:21 19.09252 72.87144 35 ft 2 kts 34°
2026-05-06 06:21 19.09241 72.87132 34 ft 2 kts 57°
2026-05-06 06:22 19.09235 72.87118 34 ft 2 kts 80°
2026-05-06 06:22 19.09234 72.87110 34 ft 1 kts 94°
2026-05-06 06:22 19.09234 72.87105 34 ft 0 kts 91°
2026-05-06 06:24 19.09234 72.87106 34 ft 0 kts 91°
2026-05-06 06:25 19.09234 72.87112 34 ft 1 kts 91°
2026-05-06 06:25 19.09234 72.87135 34 ft 4 kts 89°
2026-05-06 06:25 19.09235 72.87211 35 ft 2 kts 89°
2026-05-06 06:26 19.09235 72.87212 35 ft 0 kts 89°
2026-05-06 06:26 19.09235 72.87215 35 ft 1 kts 89°
2026-05-06 06:27 19.09233 72.87231 35 ft 3 kts 105°
2026-05-06 06:27 19.09204 72.87260 34 ft 8 kts 164°
2026-05-06 06:27 19.09114 72.87265 29 ft 15 kts 179°
2026-05-06 06:27 19.09049 72.87337 28 ft 16 kts 92°
2026-05-06 06:28 19.09051 72.87447 28 ft 15 kts 89°
2026-05-06 06:28 19.09052 72.87557 29 ft 14 kts 89°
2026-05-06 06:28 19.09054 72.87663 31 ft 13 kts 89°
2026-05-06 06:28 19.09055 72.87753 32 ft 12 kts 89°
2026-05-06 06:29 19.09057 72.87834 33 ft 11 kts 89°
2026-05-06 06:29 19.09058 72.87911 35 ft 9 kts 89°
2026-05-06 06:29 19.09059 72.87971 38 ft 6 kts 89°
2026-05-06 06:29 19.09059 72.88014 39 ft 5 kts 91°
2026-05-06 06:30 19.09045 72.88043 39 ft 4 kts 145°
2026-05-06 06:30 19.09016 72.88052 40 ft 4 kts 174°
2026-05-06 06:30 19.09013 72.88052 40 ft 0 kts 174°
2026-05-06 06:31 19.09002 72.88054 40 ft 3 kts 174°
2026-05-06 06:32 19.08935 72.88047 40 ft 14 kts 199°
2026-05-06 06:32 19.08887 72.87968 38 ft 8 kts 268°
2026-05-06 06:32 19.08886 72.87896 37 ft 11 kts 269°
2026-05-06 06:32 19.08882 72.87665 31 ft 65 kts 269°
2026-05-06 06:33 19.08873 72.86939 28 ft 131 kts 269°
2026-05-06 06:33 19.08854 72.85785 148 ft 173 kts 269°
2026-05-06 06:33 19.08851 72.84489 746 ft 177 kts 270°
2026-05-06 06:33 19.08845 72.83200 1409 ft 180 kts 269°
2026-05-06 06:34 19.08821 72.81860 1956 ft 183 kts 269°
2026-05-06 06:34 19.08797 72.80451 2084 ft 202 kts 269°
2026-05-06 06:34 19.08779 72.78921 2332 ft 215 kts 269°
2026-05-06 06:34 19.08756 72.77290 2595 ft 229 kts 269°
2026-05-06 06:35 19.08730 72.75537 2874 ft 243 kts 269°
2026-05-06 06:35 19.08467 72.73732 3150 ft 256 kts 246°
2026-05-06 06:35 19.07346 72.72219 3409 ft 270 kts 214°
2026-05-06 06:35 19.05572 72.71534 3796 ft 277 kts 182°
2026-05-06 06:36 19.03709 72.71940 4326 ft 278 kts 151°
2026-05-06 06:36 19.02231 72.73224 4899 ft 279 kts 135°
2026-05-06 06:36 19.00679 72.74462 5438 ft 282 kts 158°
2026-05-06 06:36 18.98747 72.74832 6007 ft 284 kts 178°
2026-05-06 06:37 18.96772 72.74835 6575 ft 287 kts 181°
2026-05-06 06:37 18.94815 72.74774 7111 ft 290 kts 181°
2026-05-06 06:37 18.92787 72.74702 7674 ft 292 kts 181°
2026-05-06 06:37 18.90740 72.74635 8241 ft 294 kts 181°
2026-05-06 06:38 18.88704 72.74573 8681 ft 296 kts 181°
2026-05-06 06:38 18.86626 72.74515 8842 ft 297 kts 181°
2026-05-06 06:38 18.84569 72.74461 8845 ft 296 kts 181°
2026-05-06 06:38 18.82567 72.74408 8850 ft 296 kts 181°
2026-05-06 06:39 18.80495 72.74353 8853 ft 296 kts 181°
2026-05-06 06:39 18.78430 72.74374 8895 ft 299 kts 174°
2026-05-06 06:39 18.76342 72.74765 9373 ft 301 kts 163°
2026-05-06 06:39 18.74385 72.75399 10024 ft 299 kts 161°
2026-05-06 06:40 18.72411 72.76094 10384 ft 309 kts 160°
2026-05-06 06:40 18.70341 72.76830 10619 ft 322 kts 160°
2026-05-06 06:40 18.68187 72.77593 10849 ft 334 kts 161°
2026-05-06 06:40 18.65970 72.78371 11066 ft 346 kts 161°
2026-05-06 06:41 18.63672 72.79176 11276 ft 357 kts 161°
2026-05-06 06:41 18.61274 72.80012 11550 ft 366 kts 161°
2026-05-06 06:41 18.58914 72.80833 11994 ft 369 kts 161°
2026-05-06 06:41 18.56481 72.81678 12486 ft 370 kts 161°
2026-05-06 06:42 18.54042 72.82524 12953 ft 372 kts 161°
2026-05-06 06:42 18.51636 72.83360 13402 ft 375 kts 161°
2026-05-06 06:42 18.49129 72.84229 13864 ft 377 kts 161°
2026-05-06 06:42 18.46671 72.85081 14310 ft 379 kts 161°
2026-05-06 06:43 18.44236 72.85925 14747 ft 381 kts 161°
2026-05-06 06:43 18.41710 72.86801 15194 ft 384 kts 161°
2026-05-06 06:43 18.39189 72.87675 15630 ft 386 kts 161°
2026-05-06 06:43 18.36643 72.88556 16062 ft 388 kts 161°
2026-05-06 06:44 18.34143 72.89422 16480 ft 390 kts 161°
2026-05-06 06:44 18.31602 72.90301 16896 ft 392 kts 161°
2026-05-06 06:44 18.29016 72.91195 17312 ft 394 kts 161°
2026-05-06 06:44 18.26418 72.92093 17722 ft 397 kts 161°
2026-05-06 06:45 18.23892 72.92966 18113 ft 399 kts 161°
2026-05-06 06:45 18.21172 72.93904 18525 ft 401 kts 161°
2026-05-06 06:45 18.18522 72.94818 18919 ft 403 kts 161°
2026-05-06 06:45 18.15896 72.95725 19303 ft 405 kts 161°
2026-05-06 06:46 18.13193 72.96658 19694 ft 407 kts 161°
2026-05-06 06:46 18.10558 72.97694 20067 ft 409 kts 154°
2026-05-06 06:46 18.08067 72.99126 20442 ft 410 kts 146°
2026-05-06 06:46 18.05796 73.00942 20821 ft 412 kts 139°
2026-05-06 06:47 18.03648 73.02962 21212 ft 413 kts 137°
2026-05-06 06:47 18.01513 73.05024 21590 ft 415 kts 137°
2026-05-06 06:47 17.99394 73.07073 21957 ft 417 kts 137°
2026-05-06 06:47 17.97257 73.09132 22326 ft 419 kts 137°
2026-05-06 06:48 17.95086 73.11217 22696 ft 421 kts 137°
2026-05-06 06:48 17.92906 73.13305 23062 ft 423 kts 137°
2026-05-06 06:48 17.90711 73.15404 23425 ft 425 kts 137°
2026-05-06 06:48 17.88529 73.17484 23783 ft 427 kts 137°
2026-05-06 06:49 17.86320 73.19576 24140 ft 429 kts 137°
2026-05-06 06:49 17.84095 73.21685 24496 ft 431 kts 137°
2026-05-06 06:49 17.81854 73.23813 24850 ft 433 kts 137°
2026-05-06 06:49 17.79611 73.25943 25200 ft 435 kts 137°
2026-05-06 06:50 17.77394 73.28051 25542 ft 437 kts 137°
2026-05-06 06:50 17.75107 73.30226 25891 ft 439 kts 137°
2026-05-06 06:50 17.72860 73.32362 26219 ft 441 kts 137°
2026-05-06 06:50 17.70583 73.34528 26541 ft 442 kts 137°
2026-05-06 06:51 17.68285 73.36712 26859 ft 444 kts 137°
2026-05-06 06:51 17.66009 73.38874 27164 ft 446 kts 137°
2026-05-06 06:51 17.63706 73.41062 27465 ft 448 kts 137°
2026-05-06 06:51 17.61402 73.43250 27757 ft 449 kts 137°
2026-05-06 06:52 17.59091 73.45443 28055 ft 451 kts 137°
2026-05-06 06:52 17.56779 73.47636 28445 ft 449 kts 137°
2026-05-06 06:52 17.54482 73.49815 28866 ft 448 kts 137°
2026-05-06 06:52 17.52201 73.51978 29271 ft 446 kts 137°
2026-05-06 06:53 17.49978 73.54085 29647 ft 445 kts 137°
2026-05-06 06:53 17.47688 73.56255 30026 ft 443 kts 137°
2026-05-06 06:53 17.45423 73.58401 30395 ft 442 kts 137°
2026-05-06 06:53 17.43128 73.60573 30762 ft 441 kts 137°
2026-05-06 06:54 17.40906 73.62676 31111 ft 440 kts 137°
2026-05-06 06:54 17.38612 73.64847 31466 ft 439 kts 137°
2026-05-06 06:54 17.36372 73.66973 31812 ft 438 kts 137°
2026-05-06 06:54 17.34096 73.69141 32158 ft 436 kts 137°
2026-05-06 06:55 17.31854 73.71272 32490 ft 435 kts 137°
2026-05-06 06:55 17.29618 73.73392 32815 ft 434 kts 137°
2026-05-06 06:55 17.27403 73.75487 33123 ft 433 kts 137°
2026-05-06 06:55 17.25158 73.77608 33392 ft 434 kts 137°
2026-05-06 06:56 17.22900 73.79742 33624 ft 434 kts 137°
2026-05-06 06:56 17.20662 73.81854 33843 ft 435 kts 137°
2026-05-06 06:56 17.18490 73.83903 34056 ft 436 kts 137°
2026-05-06 06:56 17.16248 73.86015 34271 ft 436 kts 137°
2026-05-06 06:57 17.14004 73.88130 34478 ft 437 kts 137°
2026-05-06 06:57 17.11755 73.90248 34677 ft 437 kts 137°
2026-05-06 06:57 17.09488 73.92382 34829 ft 439 kts 137°
2026-05-06 06:58 17.04941 73.96661 34849 ft 442 kts 137°
2026-05-06 06:58 17.00442 74.00890 34852 ft 445 kts 137°
2026-05-06 06:59 16.95856 74.05196 34853 ft 447 kts 137°
2026-05-06 06:59 16.91222 74.09576 34853 ft 448 kts 136°
2026-05-06 07:00 16.87038 74.14130 34855 ft 447 kts 130°
2026-05-06 07:00 16.83096 74.19219 34855 ft 447 kts 128°
2026-05-06 07:01 16.79250 74.24303 34855 ft 447 kts 128°
2026-05-06 07:01 16.75444 74.29331 34854 ft 447 kts 128°
2026-05-06 07:02 16.71624 74.34373 34854 ft 447 kts 128°
2026-05-06 07:02 16.67735 74.39500 34854 ft 447 kts 128°
2026-05-06 07:03 16.63880 74.44580 34854 ft 447 kts 128°
2026-05-06 07:03 16.60019 74.49663 34854 ft 447 kts 128°
2026-05-06 07:04 16.56156 74.54744 34855 ft 447 kts 128°
2026-05-06 07:04 16.52310 74.59801 34854 ft 447 kts 128°
2026-05-06 07:05 16.48440 74.64884 34854 ft 447 kts 128°
2026-05-06 07:05 16.44584 74.69965 34855 ft 447 kts 128°
2026-05-06 07:06 16.40738 74.75029 34854 ft 447 kts 128°
2026-05-06 07:06 16.36857 74.80122 34854 ft 447 kts 128°
2026-05-06 07:07 16.33006 74.85168 34854 ft 447 kts 128°
2026-05-06 07:07 16.29143 74.90222 34855 ft 447 kts 128°
2026-05-06 07:08 16.25277 74.95274 34855 ft 446 kts 128°
2026-05-06 07:08 16.21417 75.00317 34855 ft 445 kts 127°
2026-05-06 07:09 16.17549 75.05366 34855 ft 444 kts 127°
2026-05-06 07:09 16.13715 75.10368 34855 ft 443 kts 127°
2026-05-06 07:10 16.09890 75.15356 34866 ft 443 kts 127°
2026-05-06 07:10 16.06043 75.20372 34899 ft 443 kts 127°
2026-05-06 07:11 16.02212 75.25362 34920 ft 443 kts 127°
2026-05-06 07:11 15.98371 75.30360 34930 ft 443 kts 127°
2026-05-06 07:12 15.94519 75.35370 34934 ft 443 kts 127°
2026-05-06 07:12 15.90677 75.40362 34936 ft 443 kts 127°
2026-05-06 07:13 15.86821 75.45343 34936 ft 443 kts 127°
2026-05-06 07:13 15.82971 75.50308 34936 ft 443 kts 127°
2026-05-06 07:14 15.79107 75.55307 34936 ft 443 kts 127°
2026-05-06 07:14 15.75263 75.60284 34936 ft 443 kts 127°
2026-05-06 07:15 15.71422 75.65256 34936 ft 443 kts 127°
2026-05-06 07:15 15.67599 75.70229 34936 ft 443 kts 127°
2026-05-06 07:16 15.63753 75.75222 34936 ft 443 kts 127°
2026-05-06 07:16 15.59916 75.80190 34936 ft 443 kts 127°
2026-05-06 07:17 15.56090 75.85133 34936 ft 443 kts 127°
2026-05-06 07:17 15.52240 75.90105 34936 ft 443 kts 127°
2026-05-06 07:18 15.48364 75.95105 34934 ft 443 kts 127°
2026-05-06 07:18 15.44521 76.00059 34928 ft 443 kts 127°
2026-05-06 07:19 15.40659 76.05034 34923 ft 443 kts 127°
2026-05-06 07:19 15.36811 76.09988 34927 ft 443 kts 127°
2026-05-06 07:20 15.32966 76.14933 34930 ft 443 kts 127°
2026-05-06 07:20 15.29089 76.19916 34928 ft 443 kts 127°
2026-05-06 07:21 15.25247 76.24850 34927 ft 443 kts 127°
2026-05-06 07:21 15.21390 76.29799 34937 ft 443 kts 127°
2026-05-06 07:22 15.17513 76.34770 34959 ft 443 kts 127°
2026-05-06 07:22 15.13676 76.39696 34977 ft 442 kts 127°
2026-05-06 07:23 15.09823 76.44638 34986 ft 442 kts 127°
2026-05-06 07:23 15.05973 76.49571 34990 ft 442 kts 127°
2026-05-06 07:24 15.02101 76.54524 34991 ft 442 kts 127°
2026-05-06 07:24 14.98246 76.59454 34990 ft 442 kts 127°
2026-05-06 07:25 14.94432 76.64327 34983 ft 441 kts 127°
2026-05-06 07:25 14.92506 76.66791 34826 ft 442 kts 127°
2026-05-06 07:25 14.90599 76.69240 34424 ft 442 kts 127°
2026-05-06 07:25 14.89302 76.70903 34154 ft 442 kts 127°
2026-05-06 07:26 14.87359 76.73374 33752 ft 443 kts 127°
2026-05-06 07:26 14.85409 76.75848 33359 ft 444 kts 127°
2026-05-06 07:26 14.83464 76.78320 32984 ft 445 kts 127°
2026-05-06 07:26 14.81529 76.80782 32611 ft 446 kts 127°
2026-05-06 07:27 14.79578 76.83263 32235 ft 448 kts 127°
2026-05-06 07:27 14.77625 76.85751 31861 ft 449 kts 127°
2026-05-06 07:27 14.75652 76.88262 31484 ft 451 kts 127°
2026-05-06 07:27 14.73792 76.90630 31130 ft 453 kts 127°
2026-05-06 07:28 14.71811 76.93150 30754 ft 455 kts 127°
2026-05-06 07:28 14.69824 76.95678 30379 ft 456 kts 127°
2026-05-06 07:28 14.65841 77.00743 29631 ft 460 kts 127°
2026-05-06 07:29 14.63806 77.03330 29251 ft 462 kts 127°
2026-05-06 07:29 14.61833 77.05896 28876 ft 459 kts 124°
2026-05-06 07:29 14.60085 77.08575 28505 ft 456 kts 119°
2026-05-06 07:29 14.58592 77.11396 28134 ft 453 kts 114°
2026-05-06 07:30 14.57323 77.14430 27750 ft 450 kts 110°
2026-05-06 07:30 14.56220 77.17421 27376 ft 447 kts 109°
2026-05-06 07:30 14.55141 77.20421 27000 ft 445 kts 109°
2026-05-06 07:30 14.54068 77.23409 26594 ft 443 kts 109°
2026-05-06 07:31 14.53000 77.26375 26142 ft 441 kts 109°
2026-05-06 07:31 14.51962 77.29247 25702 ft 438 kts 109°
2026-05-06 07:31 14.50903 77.32166 25253 ft 436 kts 109°
2026-05-06 07:31 14.49842 77.35087 24800 ft 433 kts 109°
2026-05-06 07:32 14.48825 77.37883 24364 ft 431 kts 109°
2026-05-06 07:32 14.47781 77.40749 23916 ft 428 kts 109°
2026-05-06 07:32 14.46752 77.43574 23470 ft 426 kts 109°
2026-05-06 07:32 14.45704 77.46447 23015 ft 424 kts 109°
2026-05-06 07:33 14.44675 77.49267 22566 ft 421 kts 109°
2026-05-06 07:33 14.43650 77.52075 22117 ft 419 kts 109°
2026-05-06 07:33 14.42632 77.54864 21967 ft 418 kts 109°
2026-05-06 07:33 14.41594 77.57708 21955 ft 431 kts 109°
2026-05-06 07:34 14.40527 77.60632 21951 ft 440 kts 109°
2026-05-06 07:34 14.39440 77.63605 21944 ft 443 kts 109°
2026-05-06 07:34 14.38353 77.66580 21936 ft 443 kts 109°
2026-05-06 07:34 14.37271 77.69548 21924 ft 443 kts 109°
2026-05-06 07:35 14.36190 77.72513 21909 ft 443 kts 109°
2026-05-06 07:35 14.35110 77.75471 21892 ft 443 kts 109°
2026-05-06 07:35 14.34021 77.78445 21874 ft 443 kts 109°
2026-05-06 07:35 14.32930 77.81426 21859 ft 443 kts 109°
2026-05-06 07:36 14.31841 77.84395 21848 ft 443 kts 109°
2026-05-06 07:36 14.30763 77.87334 21840 ft 443 kts 109°
2026-05-06 07:36 14.29665 77.90324 21835 ft 443 kts 109°
2026-05-06 07:36 14.28579 77.93285 21832 ft 443 kts 109°
2026-05-06 07:37 14.27539 77.96113 21831 ft 443 kts 109°
2026-05-06 07:37 14.26469 77.99023 21830 ft 443 kts 109°
2026-05-06 07:37 14.25370 78.02012 21772 ft 443 kts 109°
2026-05-06 07:37 14.24293 78.04941 21480 ft 441 kts 109°
2026-05-06 07:38 14.23200 78.07909 21184 ft 453 kts 109°
2026-05-06 07:38 14.22082 78.10950 20885 ft 460 kts 109°
2026-05-06 07:38 14.20942 78.14047 20582 ft 460 kts 109°
2026-05-06 07:38 14.19809 78.17121 20281 ft 459 kts 109°
2026-05-06 07:39 14.18695 78.20140 19985 ft 457 kts 109°
2026-05-06 07:39 14.17573 78.23180 19685 ft 455 kts 109°
2026-05-06 07:39 14.16446 78.26231 19383 ft 454 kts 109°
2026-05-06 07:39 14.15418 78.29015 19107 ft 452 kts 109°
2026-05-06 07:40 14.14219 78.32259 18784 ft 450 kts 109°
2026-05-06 07:40 14.13159 78.35125 18498 ft 449 kts 109°
2026-05-06 07:40 14.12017 78.38213 18188 ft 447 kts 109°
2026-05-06 07:40 14.10928 78.41155 17895 ft 445 kts 109°
2026-05-06 07:41 14.09815 78.44157 17599 ft 444 kts 109°
2026-05-06 07:41 14.08735 78.47072 17404 ft 443 kts 109°
2026-05-06 07:41 14.07651 78.49994 17207 ft 442 kts 109°
2026-05-06 07:41 14.06557 78.52941 17007 ft 441 kts 109°
2026-05-06 07:42 14.05460 78.55899 16806 ft 440 kts 109°
2026-05-06 07:42 14.04345 78.58793 16608 ft 439 kts 111°
2026-05-06 07:42 14.03038 78.61670 16406 ft 439 kts 115°
2026-05-06 07:42 14.01579 78.64388 16208 ft 439 kts 119°
2026-05-06 07:43 14.00032 78.67069 16011 ft 438 kts 120°
2026-05-06 07:43 13.98465 78.69755 15810 ft 437 kts 120°
2026-05-06 07:43 13.96897 78.72438 15610 ft 436 kts 120°
2026-05-06 07:43 13.95353 78.75079 15412 ft 435 kts 120°
2026-05-06 07:44 13.93805 78.77724 15213 ft 434 kts 120°
2026-05-06 07:44 13.92239 78.80402 15011 ft 433 kts 120°
2026-05-06 07:44 13.90705 78.83023 14816 ft 432 kts 120°
2026-05-06 07:44 13.89175 78.85633 14667 ft 431 kts 120°
2026-05-06 07:45 13.87631 78.88245 14518 ft 430 kts 120°
2026-05-06 07:45 13.86105 78.90829 14371 ft 430 kts 120°
2026-05-06 07:45 13.84551 78.93466 14220 ft 429 kts 120°
2026-05-06 07:45 13.83020 78.96069 14071 ft 428 kts 120°
2026-05-06 07:46 13.81482 78.98687 13921 ft 428 kts 120°
2026-05-06 07:46 13.79949 79.01299 13757 ft 427 kts 120°
2026-05-06 07:46 13.78450 79.03854 13508 ft 425 kts 120°
2026-05-06 07:46 13.76907 79.06482 13255 ft 424 kts 120°
2026-05-06 07:47 13.75397 79.09055 13006 ft 423 kts 120°
2026-05-06 07:47 13.73885 79.11633 12756 ft 421 kts 120°
2026-05-06 07:47 13.72384 79.14189 12509 ft 424 kts 120°
2026-05-06 07:47 13.70852 79.16797 12256 ft 424 kts 120°
2026-05-06 07:48 13.69330 79.19389 12006 ft 423 kts 120°
2026-05-06 07:48 13.67796 79.21998 11753 ft 421 kts 120°
2026-05-06 07:48 13.66313 79.24522 11507 ft 420 kts 120°
2026-05-06 07:48 13.64838 79.27030 11262 ft 418 kts 120°
2026-05-06 07:49 13.63333 79.29588 11012 ft 416 kts 120°
2026-05-06 07:49 13.61842 79.32124 10846 ft 415 kts 120°
2026-05-06 07:49 13.60353 79.34653 10834 ft 415 kts 120°
2026-05-06 07:49 13.58874 79.37166 10831 ft 415 kts 120°
2026-05-06 07:50 13.57385 79.39695 10830 ft 415 kts 120°
2026-05-06 07:50 13.55887 79.42239 10829 ft 415 kts 120°
2026-05-06 07:50 13.54424 79.44720 10829 ft 415 kts 120°
2026-05-06 07:50 13.52980 79.47169 10829 ft 415 kts 120°
2026-05-06 07:51 13.51480 79.49714 10829 ft 415 kts 120°
2026-05-06 07:51 13.49992 79.52235 10784 ft 412 kts 120°
2026-05-06 07:51 13.48509 79.54748 10564 ft 412 kts 120°
2026-05-06 07:51 13.47033 79.57249 10365 ft 412 kts 120°
2026-05-06 07:52 13.45581 79.59708 10169 ft 411 kts 120°
2026-05-06 07:52 13.44091 79.62232 9967 ft 410 kts 120°
2026-05-06 07:52 13.42526 79.64643 9761 ft 400 kts 125°
2026-05-06 07:52 13.40800 79.66789 9483 ft 385 kts 130°
2026-05-06 07:53 13.39017 79.68784 9161 ft 380 kts 131°
2026-05-06 07:53 13.37223 79.70749 8836 ft 379 kts 132°
2026-05-06 07:53 13.35420 79.72718 8510 ft 378 kts 132°
2026-05-06 07:53 13.33665 79.74635 8191 ft 377 kts 132°
2026-05-06 07:54 13.31901 79.76566 7870 ft 376 kts 132°
2026-05-06 07:54 13.30208 79.78421 7560 ft 375 kts 132°
2026-05-06 07:54 13.28373 79.80433 7224 ft 373 kts 133°
2026-05-06 07:54 13.26659 79.82311 6909 ft 372 kts 133°
2026-05-06 07:55 13.24888 79.84249 6582 ft 370 kts 133°
2026-05-06 07:55 13.23121 79.86184 6255 ft 368 kts 133°
2026-05-06 07:55 13.21397 79.88071 5934 ft 367 kts 133°
2026-05-06 07:55 13.19656 79.89978 5608 ft 365 kts 133°
2026-05-06 07:56 13.17915 79.91884 5281 ft 363 kts 133°
2026-05-06 07:56 13.16205 79.93755 4958 ft 362 kts 133°
2026-05-06 07:56 13.14487 79.95635 4632 ft 360 kts 133°
2026-05-06 07:56 13.12781 79.97501 4307 ft 358 kts 134°
2026-05-06 07:57 13.11094 79.99347 4045 ft 355 kts 134°